Wind_Speed
9 9 9 10 11 12 13 13 13 13 13 14 14 15 16 16 16 17 17 18 18 19 20 21 22 23 24 25 25 26 26 27 28 29 29 30 32 32
9 10 10 11 12 12 13 14 14 15 15 15 16 16 17 18 19 19 20 20 20 21 22 23 24 25 26 27 28 28 28 29 30 31 31 32 32 33
10 11 12 13 13 14 14 15 16 16 17 17 17 18 19 20 20 21 22 22 23 23 24 25 26 27 28 29 30 30 31 31 31 32 33 33 34 34
12 12 13 14 15 15 16 17 17 18 19 19 20 20 21 22 22 23 24 24 25 26 27 27 28 29 30 30 31 31 32 32 32 33 34 34 35 36
14 14 14 15 16 17 18 18 19 20 20 21 22 22 23 24 24 25 25 26 27 28 29 29 29 30 31 32 32 33 33 34 34 34 35 36 36 37
15 16 16 16 17 18 19 20 20 21 22 23 24 25 26 26 27 27 27 28 29 29 30 31 31 32 33 34 35 35 35 36 36 37 37 38 39 39
17 17 17 18 19 19 20 21 22 23 24 25 26 27 27 28 29 29 30 30 31 31 32 33 33 34 35 36 37 38 38 38 39 39 40 41 42 43
18 19 19 19 21 22 23 24 24 25 26 27 28 29 30 30 31 31 32 32 33 34 35 35 36 36 37 38 38 39 40 41 41 41 42 43 44 44
20 20 21 21 22 24 24 25 26 27 28 29 30 31 32 33 33 34 34 35 35 36 37 38 39 39 40 40 41 42 42 43 44 44 44 45 46 47
21 22 23 23 24 25 26 27 28 29 30 31 32 33 34 35 36 36 37 38 38 39 40 40 41 41 42 43 43 44 45 45 46 46 46 47 47 49
22 23 24 25 27 28 29 30 30 32 32 34 35 36 36 37 38 39 40 41 41 41 42 43 43 43 44 45 45 46 46 47 47 48 48 49 49 50
24 25 26 27 29 30 31 32 32 34 35 36 37 37 38 39 40 42 43 44 44 44 44 45 46 46 46 46 47 47 48 48 49 50 51 51 52 52
26 27 28 29 31 32 33 34 35 36 37 38 38 39 40 42 43 45 45 46 46 46 47 48 48 48 48 47 47 48 49 50 51 52 53 53 53 53
27 29 30 31 33 34 35 36 37 37 38 39 40 41 43 44 45 45 46 47 48 49 49 50 50 50 50 49 48 49 51 52 53 53 53 53 53 54
29 31 32 33 34 36 37 37 38 39 40 41 42 44 45 46 46 46 46 47 48 49 49 50 50 50 50 50 50 50 50 51 52 53 53 54 54 54
32 33 34 35 36 37 38 39 40 41 42 43 44 46 47 47 47 47 47 48 48 48 49 50 50 51 51 51 51 51 51 52 52 53 53 53 53 53
34 35 36 37 38 39 40 41 42 43 43 44 46 47 47 47 47 48 48 49 49 49 49 50 51 51 51 52 51 51 51 51 52 52 51 50 49 49
35 36 37 38 39 40 41 42 43 44 45 46 47 48 48 48 49 49 49 50 50 50 50 50 50 50 49 50 51 51 50 50 50 49 49 48 46 46
37 37 39 40 41 41 42 43 45 46 47 47 48 49 49 49 49 50 50 50 50 50 50 50 50 50 50 48 48 50 50 49 48 47 45 45 44 44
39 40 41 42 42 43 44 45 46 47 48 48 49 49 49 49 49 49 49 49 49 50 50 50 50 50 50 49 48 47 49 49 47 46 44 43 43 43
40 42 43 43 44 45 46 46 47 47 48 48 49 49 50 50 49 49 49 49 49 49 48 48 48 49 49 49 48 47 47 47 47 46 45 43 43 42
42 43 43 44 45 46 46 46 47 47 48 49 49 49 50 50 49 48 48 48 48 47 47 47 47 48 49 49 48 47 46 45 44 44 45 45 44 42
43 44 45 45 46 47 46 46 47 48 49 49 49 49 49 49 48 47 47 48 47 47 47 47 47 47 48 48 48 47 46 45 44 43 42 43 43 42
Wind_Direction
312 316 320 322 319 319 319 318 320 320 319 319 319 319 317 315 313 310 308 304 301 297 294 292 291 289 288 286 286 285 281 277 275 274 273 272 270 268
307 311 315 316 318 318 319 321 321 320 319 318 317 317 315 313 312 310 307 305 302 299 295 293 291 291 291 291 289 288 285 283 280 278 276 275 273 271
302 305 307 309 311 312 314 316 317 317 316 317 317 316 315 313 312 310 307 305 303 299 297 294 292 291 290 290 289 288 288 285 282 279 278 276 275 273
299 301 303 305 306 308 309 311 313 312 312 313 313 313 313 312 311 309 307 305 303 300 298 296 294 292 291 290 289 288 288 286 283 281 278 276 274 273
298 299 301 303 305 306 308 309 310 310 310 310 310 311 311 310 309 307 306 305 303 301 299 297 296 294 293 290 289 288 288 286 284 282 280 278 275 274
298 299 300 302 305 306 308 308 308 308 309 309 309 309 308 308 307 306 305 304 303 301 299 298 297 296 294 292 290 288 287 286 284 282 280 278 276 275
297 299 301 302 304 306 307 308 308 307 308 308 308 308 307 306 305 304 304 303 302 301 299 298 297 295 294 292 291 290 288 286 284 282 280 279 277 277
297 298 299 302 304 305 306 307 307 307 307 307 306 306 305 304 304 304 303 303 302 301 300 298 297 296 295 294 292 291 289 288 287 285 284 281 279 279
297 298 299 301 304 305 306 307 308 307 307 307 307 306 305 304 304 304 304 303 302 301 300 299 298 297 296 294 293 291 290 289 287 286 285 284 282 281
297 298 300 302 304 305 306 306 307 307 307 307 307 307 306 305 305 304 304 303 302 301 299 299 298 297 296 295 294 292 290 289 288 286 285 284 283 282
298 299 300 303 304 304 305 306 307 307 307 307 307 307 306 306 305 305 305 304 303 302 300 300 299 298 297 295 294 292 291 289 289 287 286 285 284 283
297 298 300 303 304 304 306 307 307 307 307 307 306 306 305 305 305 305 305 304 303 302 301 300 300 299 298 296 294 292 291 289 289 288 287 286 285 284
299 300 302 303 305 305 306 307 307 306 306 306 306 306 306 306 306 305 305 305 304 303 302 301 301 300 298 297 295 294 292 291 289 289 288 287 286 285
300 301 302 304 305 306 307 307 307 307 306 306 306 307 307 307 306 306 305 305 304 304 304 303 302 301 299 298 296 295 293 292 291 290 289 288 287 286
301 301 302 304 305 306 306 307 307 307 307 307 307 308 308 308 307 307 306 305 305 305 304 303 302 301 300 299 298 297 295 294 293 291 290 289 288 287
302 303 304 305 305 306 306 307 307 307 307 308 308 308 308 308 308 307 307 306 306 306 305 304 304 303 302 301 300 299 298 297 295 293 291 290 289 288
304 304 305 305 306 306 306 307 307 307 308 308 309 309 309 308 308 308 307 307 307 306 306 305 305 305 304 303 302 301 300 299 297 295 293 291 290 289
304 305 305 305 305 306 306 307 307 308 308 309 309 310 310 309 309 309 308 308 307 307 307 306 306 306 306 305 304 303 302 300 298 296 294 293 291 290
304 305 306 306 306 306 307 307 308 308 308 309 310 310 311 310 310 310 309 308 308 308 308 307 306 307 307 307 306 304 303 302 300 297 295 294 292 291
304 304 305 305 306 306 306 307 308 309 309 309 310 311 311 311 311 310 310 309 309 309 309 308 308 308 309 309 308 307 305 304 302 299 296 294 294 293
304 305 305 305 306 306 307 307 308 309 310 310 311 311 311 311 311 311 310 310 310 310 310 310 310 310 310 311 310 309 307 305 303 301 298 295 294 293
304 304 305 305 307 307 308 308 310 311 311 310 311 311 311 311 312 311 311 311 311 311 311 311 311 311 311 311 311 310 308 307 304 303 301 298 296 294
303 304 305 305 306 308 309 309 310 310 310 310 310 311 311 312 312 311 311 311 312 312 312 312 312 311 312 312 312 311 310 308 305 303 302 299 297 295
Height
5871 5870 5869 5868 5867 5866 5865 5864 5863 5862 5860 5859 5857 5855 5854 5853 5851 5850 5849 5848 5846 5845 5844 5843 5842 5841 5839 5838 5837 5836 5834 5833 5833 5832 5832 5832 5832 5832
5869 5868 5867 5866 5865 5864 5863 5861 5860 5859 5858 5856 5854 5853 5851 5849 5848 5846 5844 5843 5841 5840 5839 5837 5836 5834 5833 5831 5830 5828 5827 5825 5824 5824 5823 5823 5823 5823
5867 5866 5865 5864 5863 5861 5860 5859 5857 5856 5854 5853 5851 5849 5847 5845 5843 5841 5839 5837 5835 5834 5832 5830 5829 5827 5826 5824 5822 5820 5819 5817 5816 5815 5814 5814 5813 5813
5864 5863 5862 5861 5860 5859 5857 5855 5854 5852 5850 5848 5846 5844 5842 5840 5838 5836 5833 5831 5829 5827 5825 5823 5822 5820 5818 5816 5814 5812 5810 5808 5807 5806 5805 5804 5803 5803
5861 5860 5859 5858 5856 5855 5853 5852 5850 5848 5846 5844 5842 5839 5837 5835 5832 5830 5827 5824 5822 5820 5817 5815 5813 5811 5809 5807 5805 5803 5801 5799 5797 5796 5794 5793 5792 5792
5857 5856 5855 5854 5852 5851 5849 5847 5845 5843 5841 5838 5836 5834 5831 5828 5826 5823 5820 5817 5815 5812 5809 5806 5804 5802 5799 5797 5795 5793 5791 5788 5786 5785 5783 5782 5781 5780
5853 5852 5851 5850 5848 5846 5844 5842 5840 5837 5835 5832 5830 5827 5824 5821 5818 5815 5812 5809 5806 5803 5800 5797 5795 5792 5789 5786 5783 5781 5779 5777 5774 5772 5771 5769 5768 5766
5849 5848 5846 5845 5843 5841 5838 5836 5834 5831 5829 5826 5823 5820 5816 5813 5810 5806 5803 5800 5798 5794 5790 5787 5784 5781 5778 5775 5772 5769 5766 5764 5761 5759 5757 5755 5753 5752
5844 5843 5841 5839 5837 5835 5833 5830 5827 5824 5821 5818 5815 5811 5808 5804 5800 5797 5793 5790 5786 5783 5779 5776 5772 5769 5765 5762 5759 5756 5753 5750 5748 5745 5743 5740 5738 5736
5838 5837 5835 5833 5831 5829 5826 5823 5820 5816 5813 5810 5806 5802 5798 5794 5790 5786 5782 5779 5775 5771 5766 5764 5760 5756 5752 5749 5745 5741 5738 5736 5733 5730 5728 5725 5723 5720
5832 5831 5829 5827 5824 5822 5819 5816 5812 5808 5804 5800 5796 5792 5788 5784 5779 5775 5771 5767 5764 5760 5754 5750 5747 5743 5739 5735 5731 5727 5723 5720 5717 5714 5711 5709 5706 5704
5826 5824 5822 5819 5816 5813 5811 5807 5804 5800 5796 5792 5787 5783 5778 5773 5769 5764 5759 5755 5750 5747 5742 5737 5733 5729 5726 5721 5716 5712 5708 5704 5701 5698 5694 5691 5688 5685
5819 5817 5814 5811 5808 5805 5802 5798 5794 5790 5786 5782 5777 5773 5768 5763 5757 5752 5747 5742 5737 5732 5727 5722 5718 5713 5709 5706 5702 5696 5692 5688 5684 5681 5677 5673 5670 5666
5812 5809 5806 5803 5800 5796 5792 5788 5784 5780 5776 5771 5766 5762 5757 5751 5745 5740 5734 5729 5723 5718 5712 5707 5702 5697 5693 5689 5686 5681 5676 5670 5666 5662 5659 5655 5651 5647
5804 5801 5798 5794 5791 5787 5783 5778 5774 5770 5765 5760 5755 5750 5744 5738 5732 5727 5721 5716 5710 5704 5698 5692 5687 5682 5677 5672 5668 5664 5659 5654 5648 5644 5640 5636 5632 5628
5796 5792 5789 5785 5781 5777 5773 5768 5763 5759 5754 5749 5743 5737 5731 5725 5719 5714 5708 5703 5697 5692 5685 5678 5672 5667 5662 5656 5651 5646 5641 5636 5631 5626 5621 5617 5613 5608
5787 5783 5780 5776 5772 5767 5762 5758 5753 5747 5742 5737 5731 5725 5719 5713 5707 5701 5695 5689 5683 5678 5672 5665 5658 5652 5646 5640 5635 5629 5624 5618 5613 5607 5603 5599 5595 5590
5778 5774 5770 5766 5761 5757 5752 5747 5741 5736 5730 5724 5718 5712 5706 5700 5694 5688 5681 5675 5669 5663 5657 5650 5644 5639 5633 5626 5618 5612 5608 5602 5596 5590 5585 5581 5579 5574
5768 5764 5760 5755 5750 5745 5740 5735 5730 5724 5718 5712 5706 5700 5693 5687 5680 5674 5668 5661 5655 5649 5643 5636 5629 5623 5618 5613 5607 5596 5590 5585 5580 5575 5569 5565 5562 5559
5758 5754 5749 5744 5739 5734 5729 5723 5718 5712 5706 5700 5693 5687 5680 5674 5667 5661 5654 5648 5641 5635 5629 5622 5615 5608 5601 5596 5591 5585 5575 5568 5563 5559 5555 5551 5547 5543
5747 5743 5738 5732 5727 5722 5717 5711 5705 5699 5693 5687 5681 5674 5668 5661 5654 5648 5641 5634 5628 5621 5615 5609 5602 5595 5588 5582 5577 5571 5563 5554 5548 5543 5539 5535 5532 5529
5736 5732 5726 5721 5716 5710 5705 5699 5693 5687 5681 5675 5668 5662 5655 5648 5641 5635 5628 5622 5615 5608 5602 5596 5589 5582 5575 5569 5562 5557 5551 5544 5537 5530 5524 5519 5514 5512
5725 5720 5715 5710 5704 5698 5693 5687 5681 5675 5669 5662 5655 5649 5642 5635 5629 5622 5616 5609 5603 5596 5590 5584 5577 5570 5563 5556 5549 5543 5536 5530 5525 5519 5514 5507 5502 5498